Location: ????????
(55.2665°N, 39.4098°E)
Time: 06:19:12
(UTC+00:00)

Daily predictions for brighter satellites

Satellite Brightness Start Highest point End
(mag) Time Altitude Azimuth Time Altitude Azimuth Time Altitude Azimuth
Cosmos 2278 Rocket 3.3 13:30:01 10° WSW 13:35:15 37° NW 13:40:31 10° NNE
Cosmos 1867 4.3 13:30:20 10° NW 13:35:20 35° NNE 13:40:19 10° E
Cosmos 1484 Rocket 2.8 13:32:24 10° SE 13:35:47 46° ENE 13:39:11 10° N
Cosmos 2151 Rocket 3.6 13:31:36 10° S 13:36:05 82° E 13:40:35 10° NNE
Cosmos 44 3.7 13:33:30 10° NW 13:38:41 80° SW 13:44:02 10° SE
Cosmos 304 Rocket 4.4 13:34:39 10° SW 13:39:19 54° WNW 13:44:02 10° NNE
Cosmos 1862 4.4 13:36:47 10° NNW 13:40:18 43° W 13:43:47 10° SSW
Cosmos 1656 Rocket 3.9 13:35:50 10° SW 13:41:29 77° NW 13:47:13 10° NNE
Cosmos 2151 4.4 13:41:56 10° NNE 13:44:33 16° ENE 13:47:09 10° E
Cosmos 1570 Rocket 4.4 13:39:39 10° NNW 13:44:46 43° NE 13:49:51 10° ESE
Cosmos 1943 Rocket 3.4 13:40:29 10° W 13:45:26 32° NW 13:50:23 10° NNE
USA 290 4.0 13:43:57 10° N 13:45:56 15° NE 13:47:55 10° E
DMSP B5D2-2 4.2 13:42:25 10° NNE 13:47:38 79° WNW 13:52:50 10° SSW
Cosmos 1455 Rocket 3.5 13:44:20 10° SSE 13:48:21 39° E 13:52:26 10° NNE
Cosmos 1814 Rocket 4.4 13:44:21 10° NNW 13:49:41 71° WSW 13:54:59 10° SSE
Cosmos 1627 Rocket 4.5 13:45:09 10° N 13:51:21 68° ENE 13:57:36 10° SSE
NOSS 3-3 (A) 4.5 13:44:58 10° NW 13:51:41 63° NNE 13:59:49 10° ESE
Cosmos 1607 4.2 13:46:12 10° NW 13:52:13 50° NNE 13:58:18 10° ESE
Meteor 1-28 Rocket 3.8 13:51:13 10° NNE 13:54:13 29° E 13:57:11 10° SSE
CZ-2D R/B 3.9 13:52:22 10° ESE 13:54:55 23° ENE 13:57:28 10° N
Cosmos 1346 Rocket 3.8 13:52:05 10° NNW 13:55:39 46° W 13:59:11 10° S
Cosmos 1850 Rocket 4.0 13:50:43 10° SSW 13:55:53 77° ESE 14:01:03 10° NNE
Lacrosse 5 rocket 3.1 13:54:24 10° S 13:56:47 16° SE 13:59:08 10° E
Cosmos 1782 4.4 13:55:51 10° ESE 13:57:43 14° E 13:59:07 11° ENE
Cosmos 2263 4.3 13:53:40 10° SSW 13:59:23 69° ESE 14:05:09 10° NE
Cosmos 1743 3.8 13:57:31 10° NNE 13:59:47 17° ENE 14:02:03 10° ESE
GEOS 3 Rocket 4.1 13:58:06 10° NE 14:03:18 48° SE 14:08:29 10° SSW
SMAP 3.2 13:59:54 10° SE 14:04:25 53° ENE 14:08:59 10° N
Cosmos 2297 3.7 13:58:54 10° SSW 14:04:35 87° SE 14:10:17 10° NE
Aureole 3 Rocket 4.3 14:00:37 10° SW 14:04:46 50° WNW 14:10:31 10° N
YAOGAN 1 3.9 14:04:08 10° E 14:07:00 18° NE 14:09:52 10° NNE
CENTAUR R/B 3.0 14:03:20 10° SSW 14:08:46 46° ESE 14:14:57 12° NE
Meteor 2-1 Rocket 4.3 14:04:45 10° S 14:10:42 84° E 14:16:36 10° NNE
Landsat 7 4.0 14:06:50 10° SE 14:11:18 48° ENE 14:15:48 10° N
SJ 16-02 3.1 14:08:52 10° WSW 14:12:27 25° NW 14:16:03 10° N
Sich 1 Rocket 4.0 14:08:55 10° SSW 14:13:27 70° WNW 14:17:58 10° N
Cosmos 2297 Rocket 2.4 14:09:30 10° NNW 14:15:01 49° NE 14:20:31 10° ESE
Lacrosse 4 Rocket 2.0 14:11:35 10° S 14:15:21 36° ESE 14:18:11 16° ENE
IRS-1C 4.2 14:10:36 10° SE 14:15:48 58° ENE 14:21:03 10° NNW
Cosmos 2208 Rocket 4.1 14:10:58 10° NNW 14:16:02 51° NE 14:21:04 10° SE
SPOT 1/Viking Rocket 4.2 14:12:50 10° ESE 14:17:26 33° ENE 14:22:04 10° N
USA 215 3.3 14:11:24 10° E 14:17:58 78° N 14:24:32 10° W
Cosmos 1758 Rocket 3.8 14:15:59 10° N 14:20:11 44° ENE 14:24:18 10° SE
Cosmos 773 Rocket 4.1 14:15:24 10° NNW 14:20:30 54° NE 14:25:37 10° SE
ATLAS CENTAUR R/B 0.9 14:17:28 10° NW 14:20:42 49° NE 14:23:40 11° ESE
MOS 1 Rocket 3.7 14:16:59 10° SE 14:21:34 45° ENE 14:26:26 10° N
Cosmos 1400 Rocket 4.4 14:18:20 10° SW 14:21:37 30° WNW 14:24:54 10° N
ARIANE 5 R/B 2.5 14:16:44 10° SSE 14:21:43 63° ENE 14:26:47 10° NNW
IGS 5A 3.5 14:18:57 10° S 14:22:54 76° WSW 14:26:54 10° NNW
AQUARIUS 4.3 14:18:50 10° SE 14:23:03 47° ENE 14:27:17 10° N
Cosmos 2219 4.4 14:20:12 10° NNW 14:24:43 23° NNE 14:27:34 16° ENE
Okean 2 Rocket 4.1 14:21:26 10° SW 14:25:39 46° WNW 14:29:54 10° N
Cosmos 2084 Rocket 3.7 14:22:12 10° NW 14:26:16 46° NNE 14:29:24 16° E
Cosmos 2026 Rocket 4.3 14:20:36 10° NNW 14:26:46 74° W 14:33:01 10° S
UNK 4.0 14:22:27 10° NNE 14:26:55 46° E 14:31:19 10° S
Okean 1 Rocket 3.8 14:22:52 10° SSW 14:27:06 52° WNW 14:31:20 10° N
Cosmos 2098 Rocket 3.9 14:23:58 10° SE 14:27:16 26° E 14:30:30 12° NNE
Cosmos 2084 3.9 14:24:13 10° SSW 14:28:11 43° SE 14:30:44 20° ENE
Iridium 51 3.7 14:26:57 10° S 14:30:01 59° E 14:33:09 10° NNE
CZ-2D R/B 4.3 14:27:01 10° ESE 14:30:40 29° ENE 14:34:19 10° N
Cosmos 1634 Rocket 4.0 14:24:41 10° S 14:30:48 66° E 14:36:56 10° NNE
NOSS 3-3 (C) 4.4 14:24:24 10° NW 14:31:19 76° NE 14:39:43 10° ESE
Radarsat 4.5 14:27:56 10° SSE 14:33:07 83° ENE 14:38:21 10° NNW
USA 281 4.4 14:32:29 16° ENE 14:35:31 22° NNE 14:40:21 10° NNW
SL-08 ROCKET BODY 4.3 14:36:37 10° N 14:42:32 73° ENE 14:48:30 10° SSE
Cosmos 2228 2.9 14:39:53 10° S 14:44:05 70° E 14:48:21 10° NNE
Cosmos 1626 Rocket 3.4 14:41:19 10° N 14:45:41 84° ENE 14:50:01 10° SSE
Cosmos 405 Rocket 2.3 14:43:03 10° NNW 14:46:22 82° WSW 14:49:37 10° S
BREEZE-M DEB (TANK) 3.5 14:43:51 10° WSW 14:46:35 40° S 14:52:00 14° ESE
Thor Agena Rocket 4.2 14:41:43 10° S 14:46:53 61° WSW 14:52:02 10° NNW
CZ-4C R/B 2.7 14:44:05 10° NW 14:50:25 74° NE 14:58:33 10° ESE
Cosmos 2279 Rocket 3.9 14:45:16 10° S 14:51:23 65° E 14:57:34 10° NNE
Okean 1-7 Rocket 3.9 14:47:29 10° N 14:51:43 42° ENE 14:55:53 10° SE
SJ-6F 4.2 14:49:26 10° SSE 14:53:23 74° ENE 14:57:24 10° NNW
Intercosmos 24 4.2 14:49:28 10° NNW 14:54:07 72° W 14:57:45 10° S
Cosmos 1844 Rocket 4.2 14:50:21 10° NNW 14:54:17 19° NNE 14:55:45 17° NE
NOSS 3-2 (A) 3.7 14:52:18 10° S 14:57:03 39° ESE 14:59:40 26° ENE
Cosmos 1356 Rocket 3.4 14:53:18 10° SSW 14:57:21 82° WNW 15:01:15 11° NNE
Cosmos 292 Rocket 4.0 14:52:53 10° SW 14:57:40 68° WNW 15:01:41 15° NNE
Cosmos 2263 Rocket 2.8 14:55:07 10° NNW 15:00:19 36° NE 15:02:25 27° E
IRIDIUM 104 4.2 14:56:20 10° N 15:01:34 67° E 15:06:45 10° SSE
Resurs 1-3 3.8 14:59:16 10° SE 15:03:21 44° ENE 15:07:28 10° N
Cosmos 1315 Rocket 3.0 14:59:33 10° SSW 15:03:23 67° WNW 15:06:48 13° N
BlueWalker 3 3.2 15:00:52 10° W 15:04:12 35° SSW 15:06:43 16° SE
Cosmos 2227 Rocket 2.3 15:00:12 10° NNW 15:05:44 52° NE 15:09:24 21° ESE
IRS-P3 4.1 15:00:54 10° SSE 15:06:14 85° WSW 15:11:36 10° NNW
Cosmos 1544 Rocket 3.4 15:02:18 10° S 15:06:40 70° E 15:10:12 16° NNE
SL-16 R/B 3.0 15:03:19 10° NNE 15:09:28 60° WNW 15:15:34 10° SW
SKYMED 2 4.0 15:09:23 36° ENE 15:09:56 38° E 15:14:00 10° SSE
IRAS Rocket 4.2 15:05:01 10° SE 15:10:24 58° ENE 15:15:47 10° NNW
IRIDIUM 114 4.2 15:05:27 10° N 15:10:43 78° E 15:15:57 10° S
SJ-12 4.4 15:08:34 10° S 15:12:16 54° WSW 15:16:01 10° NNW
Cosmos 2369 Rocket 3.2 15:08:44 10° WSW 15:14:03 41° NW 15:18:24 15° NNE
Spot 4 Rocket 3.9 15:12:47 10° SSE 15:17:51 68° ENE 15:22:57 10° NNW
Cosmos 1867 3.5 15:14:09 10° NW 15:19:39 77° NE 15:22:45 26° ESE
IRIDIUM 103 4.3 15:14:38 10° N 15:19:54 90° NE 15:25:09 10° S
USA 290 2.2 15:17:28 10° NNW 15:20:44 81° WSW 15:21:49 39° SSE
Cosmos 2278 Rocket 4.1 15:17:09 10° WNW 15:20:59 18° NNW 15:23:47 13° NNE
Meteor 1-20 Rocket 4.1 15:15:34 10° NNW 15:21:06 89° ENE 15:26:34 10° SSE
Resurs 01 Rocket 3.1 15:23:11 22° NNE 15:23:11 22° NNE 15:25:06 10° N
Cosmos 2142 Rocket 4.5 15:15:32 10° S 15:21:54 80° E 15:28:20 10° NNE
Cosmos 2151 2.9 15:17:47 10° NNW 15:21:57 82° W 15:26:06 10° S
Cosmos 1602 Rocket 3.6 15:18:29 10° NNW 15:22:56 79° W 15:27:18 10° S
Cosmos 2266 Rocket 3.9 15:17:15 10° N 15:23:32 88° ENE 15:29:40 10° S
NOSS 2-2 (C) 3.1 15:25:39 10° SW 15:28:13 52° SSW 15:28:13 52° SSW
Cosmos 1697 Rocket 3.9 15:26:09 10° SSE 15:29:16 24° SE 15:29:16 24° SE
Cosmos 1943 Rocket 4.1 15:27:25 10° NW 15:30:56 17° N 15:33:07 14° NNE
Cosmos 1782 2.8 15:28:28 10° SSW 15:32:03 68° WNW 15:33:16 38° N
Lacrosse 5 rocket 1.2 15:29:34 10° SW 15:33:05 58° SSE 15:33:05 58° SSE
Cosmos 1743 3.4 15:30:28 10° NNW 15:33:36 44° W 15:36:43 10° S
Cosmos 1777 Rocket 4.1 15:29:23 10° S 15:34:26 49° ESE 15:34:54 47° E
Cosmos 1607 4.3 15:33:35 10° NW 15:39:44 64° SW 15:45:55 10° SSE
USA 81 4.2 15:34:56 10° N 15:39:37 48° ENE 15:39:37 48° ENE
COSMO-SKYMED 1 3.9 15:42:45 25° SSE 15:42:45 25° SSE 15:44:39 10° S
GEOS 3 Rocket 4.0 15:39:06 33° NNE 15:41:24 60° NNW 15:46:40 10° WSW
YAOGAN 1 2.5 15:38:04 10° SSE 15:42:19 84° WSW 15:46:38 10° NNW
Meteor 1-25 Rocket 4.4 15:39:48 10° NNW 15:45:40 79° WSW 15:51:28 10° S
Cosmos 1486 Rocket 3.9 15:40:57 10° SSW 15:46:07 72° ESE 15:47:12 55° NE
SL-19 R/B 4.2 15:41:29 10° SSE 15:46:50 86° WSW 15:52:29 10° NNW
PSLV R/B 3.3 15:45:17 27° S 15:47:24 82° WSW 15:51:28 10° NNW
OceanSat 1 rocket 4.5 15:43:37 10° SSE 15:48:23 90° E 15:53:09 10° NNW
Cosmos 2082 4.2 15:43:35 10° NNW 15:48:44 41° NE 15:48:44 41° NE
Lacrosse 4 Rocket 2.2 15:49:18 10° WSW 15:53:10 42° NW 15:53:40 40° NNW
ATLAS CENTAUR R/B 2.8 15:52:37 10° WNW 15:55:24 25° WSW 15:56:00 24° SW
SPOT 1/Viking Rocket 4.3 15:51:32 10° S 15:56:37 53° W 16:01:44 10° NNW
Cosmos 1825 Rocket 3.7 15:53:30 10° NNW 15:57:53 70° W 16:02:11 10° S
BREEZE-M DEB (TANK) 4.1 15:54:24 10° W 15:58:00 70° S 16:00:56 40° ESE
Cosmos 2297 Rocket 3.3 15:53:42 10° NW 15:59:04 44° WSW 16:04:24 10° S
CENTAUR R/B 2.8 15:53:03 10° WSW 15:59:08 68° NNW 16:02:03 38° NE
NOAA 6 4.0 15:54:40 10° SSE 15:59:48 84° WSW 16:04:56 10° NNW
Cosmos 1244 Rocket 4.5 15:53:43 10° N 15:59:59 59° ENE 16:00:34 56° E
USA 215 3.2 15:58:37 43° ESE 16:01:02 80° SSW 16:07:39 10° WNW
Cosmos 1655 Rocket 3.9 15:57:24 10° NNW 16:03:43 87° W 16:09:57 10° S
Cosmos 2098 Rocket 4.1 16:00:57 10° SW 16:04:41 43° WNW 16:07:34 19° N
Cosmos 2084 Rocket 4.0 16:01:04 10° WNW 16:05:10 52° SW 16:05:17 52° SW
Cosmos 2084 4.1 16:02:44 10° WSW 16:06:27 49° NW 16:06:27 49° NW
Meteor 1-5 Rocket 4.1 16:02:59 10° NNW 16:08:18 77° W 16:13:40 10° S
Cosmos 2219 3.3 16:04:19 10° NNW 16:09:29 58° NNE 16:09:29 58° NNE
Cosmos 1656 3.8 16:10:40 10° SW 16:16:17 73° NW 16:17:23 57° N
Cosmos 1241 Rocket 4.4 16:11:26 10° SW 16:17:48 87° NW 16:18:47 66° NE
USA 281 3.5 16:19:21 50° NNE 16:19:21 50° NNE 16:25:11 10° NNW
Meteor 2-10 4.4 16:25:47 10° NNW 16:29:55 56° NNW 16:29:55 56° NNW
Cosmos 1538 Rocket 4.5 16:32:03 10° NNW 16:36:16 56° NW 16:36:16 56° NW
CZ-4C R/B 3.7 16:32:17 10° NW 16:38:46 46° SW 16:44:46 18° S
Cosmos 1844 Rocket 4.1 16:34:23 10° NNW 16:37:23 28° N 16:37:23 28° N
Meteor 2-20 4.4 16:35:04 10° SSW 16:40:49 77° SW 16:40:49 77° SW
Cosmos 2360 4.5 16:36:31 10° SW 16:42:03 66° WNW 16:42:03 66° WNW
NOSS 3-2 (C) 4.0 16:38:41 10° SW 16:41:55 41° SSW 16:41:55 41° SSW
Cosmos 2263 Rocket 2.5 16:39:01 10° NW 16:44:07 64° W 16:44:07 64° W
NOSS 3-2 (A) 3.6 16:42:08 10° WSW 16:47:02 64° WNW 16:47:02 64° WNW
Cosmos 2227 Rocket 3.3 16:44:27 10° NW 16:49:42 41° WSW 16:51:16 34° SSW
Resurs 01 Rocket 4.1 17:00:35 16° NNW 17:00:35 16° NNW 17:01:39 10° NNW
Cosmos 2369 Rocket 4.2 16:55:40 10° WNW 16:59:39 19° NNW 17:00:09 19° N
Cosmos 2278 Rocket 4.4 17:03:31 10° NNW 17:05:36 16° N 17:05:36 16° N
Lacrosse 5 rocket 4.5 17:06:36 10° W 17:06:42 11° W 17:06:42 11° W
Cosmos 1697 Rocket 4.4 17:08:42 10° SW 17:11:02 26° SW 17:11:02 26° SW
Cosmos 1943 Rocket 4.5 17:13:08 10° NNW 17:14:36 14° NNW 17:14:36 14° NNW
USA 215 4.4 17:45:58 35° WSW 17:45:58 35° WSW 17:50:44 10° WNW
CENTAUR R/B 3.8 17:44:23 10° WNW 17:49:09 40° NW 17:49:09 40° NW
ACS3 Solar Sail 4.3 23:39:10 10° NNE 23:39:55 13° NNE 23:39:55 13° NNE
